Regional Weather Roundup
Issued by NWS

Home | Current Version | Previous Version | Graphics & Text | Print | Product List | Glossary On
Versions: 1 2 3 4 5 6 7 8 9 10 11 12 13 14 15 16 17 18 19 20 21 22 23 24 25 26 27 28 29 30 31 32 33 34 35 36 37 38 39 40 41 42 43 44 45 46 47 48 49 50
000
ASUS43 KTOP 300708
RWRKS

WEATHER ROUNDUP FOR KANSAS
NATIONAL WEATHER SERVICE GOODLAND KS
200 AM CDT SAT MAY 30 2015

NOTE:  "FAIR" INDICATES FEW OR NO CLOUDS BELOW 12,000 FEET WITH NO
SIGNIFICANT WEATHER AND/OR OBSTRUCTIONS TO VISIBILITY.

KSZ001>006-013>018-027>032-041>047-300800-
NORTHWEST KANSAS

CITY           SKY/WX    TMP DP  RH WIND       PRES   REMARKS
GOODLAND       CLOUDY    49  46  90 N14       30.30R
HAYS           CLOUDY    54  45  71 N21G28    30.19S
HILL CITY      CLOUDY    53  47  79 N14G25    30.23S
RUSSELL        CLOUDY    53  49  86 N25G32    30.16R
$$

KSZ061>065-074>080-084>089-300800-
SOUTHWEST KANSAS

CITY           SKY/WX    TMP DP  RH WIND       PRES   REMARKS
DODGE CITY     CLOUDY    56  51  84 N21       30.19R
ELKHART          N/A     56  48  74 N9          N/A
GARDEN CITY    CLOUDY    53  48  83 N20       30.22R
GREAT BEND     CLOUDY    55  48  76 N20G25    30.16S
LIBERAL        PTCLDY    57  48  72 N15       30.22R
PRATT            N/A    N/A N/A N/A N18       30.15S
$$

KSZ066>073-081>083-090>101-300800-
SOUTHEAST KANSAS

CITY           SKY/WX    TMP DP  RH WIND       PRES   REMARKS
CHANUTE        FOG       64  62  93 CALM      29.98S VSB 3/4
COFFEYVILLE    CLOUDY    64  64 100 CALM      29.96F
HUTCHINSON     CLOUDY    59  52  77 N17G24    30.09R
MEDICINE LODGE   N/A     62  56  80 N15G23    30.10S
NEWTON         CLOUDY    57  50  77 N22       30.08S
PARSONS        CLOUDY    63  63 100 CALM      29.98F
WICHITA INTL   MOCLDY    62  55  77 N15G26    30.06R
WICHITA JABRA  MOCLDY    60  55  83 NW20G28   30.05R
WICHITA MCCONL PTCLDY    61  56  84 NW16G22   30.05R
WINFIELD       MOCLDY    64  60  87 NW10      30.03R
$$

KSZ007>012-019>026-033>040-048>060-102>105-300800-
NORTHEAST KANSAS

CITY           SKY/WX    TMP DP  RH WIND       PRES   REMARKS
CONCORDIA      CLOUDY    52  48  86 N18G24    30.12R
EMPORIA        CLOUDY    60  58  92 NW7       30.01R
LAWRENCE       CLOUDY    64  63  96 CALM      29.98R
MANHATTAN      CLOUDY    59  55  87 N9G18     30.05R
MARYSVILLE     CLOUDY    55  52  88 N13G25    30.07R
OLATHE IND     CLOUDY    63  63 100 SW5       29.98S
OLATHE EXE     CLOUDY    63  63 100 CALM      29.97S
SALINA         CLOUDY    58  52  80 NW18G25   30.11R
TOPEKA BILLARD CLOUDY    63  61  93 MISG      29.99S
TOPEKA FORBES  CLOUDY    65  61  87 N10       29.99R
$$



USA.gov is the U.S. government's official web portal to all federal, state and local government web resources and services.